Charleston, SC

3:37 PM EST on December 04, 2016 (GMT -0500)
Charleston Executive

Weather History for KJZI - December, 2011

Change the Weather History Date:

Saturday, December 10, 2011

  Actual Average (KCHS) Record (KCHS)
Temperature  
Mean Temperature 52 °F 52 °F  
Max Temperature 55 °F 63 °F 82 °F (1972)
Min Temperature 50 °F 41 °F 23 °F (1968)
Degree Days  
Heating Degree Days 12 13  
Month to date heating degree days 122  
Since 1 July heating degree days 414  
Cooling Degree Days 0 0  
Month to date cooling degree days 0  
Year to date cooling degree days 2297  
Growing Degree Days 2 (Base 50)    
Moisture  
Dew Point 45 °F    
Average Humidity 74    
Maximum Humidity 94    
Minimum Humidity 54    
Precipitation  
Precipitation 0.00 in 0.10 in 1.44 in (1969)
Month to date precipitation 0.92  
Year to date precipitation 48.84  
Sea Level Pressure  
Sea Level Pressure 30.27 in    
Wind  
Wind Speed 5 mph (North)    
Max Wind Speed 12 mph    
Max Gust Speed 16 mph    
Visibility 10 miles    
Events Rain    
T = Trace of Precipitation, MM = Missing Value Source: NWS Daily Summary

Daily Weather History Graph

Daily Weather History Graph

Search for Another Location

Airport or City:

Trip Planner

Search our weather history database for the weather conditions in past years. The results will help you decide how hot, cold, wet, or windy it might be!

Date:

Astronomy

Dec. 10, 2011 Rise Set
Actual Time 7:11 AM EST 5:14 PM EST
Civil Twilight 6:44 AM EST 5:41 PM EST
Nautical Twilight 6:13 AM EST 6:12 PM EST
Astronomical Twilight 5:43 AM EST 6:42 PM EST
Moon 5:27 PM EST (12/10) 7:08 AM EST (12/10)
Length of Visible Light 10h 57m
Length of Day
10h 03m
Full, 100% of the Moon is Illuminated
Dec 10
Full
Dec 17
Last Quarter
Dec 24
New
Jan 1
First Quarter
Jan 9
Full

Hourly Weather History & Observations

Time (EST) Temp. Windchill Dew Point Humidity Pressure Visibility Wind Dir Wind Speed Gust Speed Precip Events Conditions
12:15 AM 53.6 °F - 50.0 °F 88% 30.19 in 10.0 mi NNE 6.9 mph - 0.00 in   Mostly Cloudy
12:35 AM 55.4 °F - 50.0 °F 82% 30.22 in 10.0 mi Calm Calm - 0.00 in   Partly Cloudy
12:55 AM 53.6 °F - 48.2 °F 82% 30.21 in 10.0 mi Calm Calm - 0.00 in   Partly Cloudy
1:15 AM 51.8 °F - 48.2 °F 88% 30.20 in 10.0 mi Calm Calm - 0.00 in   Clear
1:35 AM 50.0 °F - 48.2 °F 94% 30.18 in 10.0 mi Calm Calm - 0.00 in   Clear
1:55 AM 51.8 °F - 48.2 °F 88% 30.20 in 10.0 mi NW 3.5 mph - 0.00 in   Mostly Cloudy
2:15 AM 53.6 °F - 50.0 °F 88% 30.19 in 10.0 mi Calm Calm - 0.00 in   Overcast
2:35 AM 53.6 °F - 50.0 °F 88% 30.19 in 10.0 mi Calm Calm - 0.00 in   Overcast
2:55 AM 53.6 °F - 50.0 °F 88% 30.18 in 10.0 mi Calm Calm - 0.00 in   Overcast
3:15 AM 55.4 °F - 50.0 °F 82% 30.19 in 10.0 mi Calm Calm - 0.00 in   Overcast
3:35 AM 55.4 °F - 51.8 °F 88% 30.19 in 10.0 mi Calm Calm - 0.00 in   Mostly Cloudy
3:55 AM 55.4 °F - 51.8 °F 88% 30.20 in 10.0 mi Calm Calm - 0.00 in   Overcast
4:15 AM 55.4 °F - 50.0 °F 82% 30.20 in 10.0 mi NNW 5.8 mph - 0.00 in   Overcast
4:35 AM 55.4 °F - 50.0 °F 82% 30.22 in 10.0 mi NW 11.5 mph - 0.00 in Rain Light Rain
4:55 AM 53.6 °F - 50.0 °F 88% 30.22 in 3.0 mi NNW 9.2 mph - 0.00 in   Overcast
5:15 AM 53.6 °F - 48.2 °F 82% 30.22 in 9.0 mi NNW 8.1 mph - 0.00 in   Overcast
5:35 AM 53.6 °F - 48.2 °F 82% 30.24 in 10.0 mi NW 8.1 mph - 0.00 in   Overcast
5:55 AM 53.6 °F - 48.2 °F 82% 30.24 in 8.0 mi NW 9.2 mph - 0.00 in   Overcast
6:35 AM 51.8 °F - 48.2 °F 88% 30.25 in 9.0 mi NNW 8.1 mph - 0.00 in   Overcast
6:55 AM 51.8 °F - 48.2 °F 88% 30.26 in 10.0 mi NNW 6.9 mph - 0.00 in   Overcast
7:15 AM 51.8 °F - 48.2 °F 88% 30.27 in 10.0 mi NNW 8.1 mph - 0.00 in   Overcast
7:55 AM 53.6 °F - 46.4 °F 77% 30.28 in 9.0 mi North 11.5 mph - 0.00 in   Overcast
8:15 AM 53.6 °F - 46.4 °F 77% 30.29 in 8.0 mi North 8.1 mph - 0.00 in   Overcast
8:35 AM 53.6 °F - 46.4 °F 77% 30.29 in 8.0 mi North 9.2 mph - 0.00 in   Overcast
8:55 AM 53.6 °F - 46.4 °F 77% 30.30 in 9.0 mi North 10.4 mph - 0.00 in   Overcast
9:15 AM 53.6 °F - 46.4 °F 77% 30.30 in 10.0 mi North 8.1 mph - 0.00 in   Overcast
9:35 AM 53.6 °F - 44.6 °F 72% 30.31 in 9.0 mi North 9.2 mph - 0.00 in   Overcast
9:55 AM 53.6 °F - 44.6 °F 72% 30.31 in 10.0 mi North 9.2 mph 16.1 mph 0.00 in   Overcast
10:15 AM 53.6 °F - 46.4 °F 77% 30.30 in 10.0 mi NNE 11.5 mph - 0.00 in   Overcast
10:35 AM 53.6 °F - 46.4 °F 77% 30.32 in 9.0 mi North 10.4 mph - 0.00 in   Overcast
10:55 AM 53.6 °F - 44.6 °F 72% 30.30 in 10.0 mi NNE 11.5 mph - 0.00 in   Overcast
11:15 AM 53.6 °F - 44.6 °F 72% 30.31 in 10.0 mi North 9.2 mph - 0.00 in   Overcast
11:35 AM 53.6 °F - 42.8 °F 67% 30.30 in 10.0 mi North 8.1 mph - 0.00 in   Overcast
11:55 AM 53.6 °F - 44.6 °F 72% 30.30 in 10.0 mi North 9.2 mph - 0.00 in   Overcast
12:15 PM 53.6 °F - 44.6 °F 72% 30.30 in 8.0 mi North 9.2 mph - 0.00 in   Overcast
12:35 PM 51.8 °F - 44.6 °F 76% 30.28 in 9.0 mi North 9.2 mph - 0.00 in   Overcast
12:55 PM 51.8 °F - 44.6 °F 76% 30.29 in 8.0 mi North 6.9 mph - 0.00 in   Overcast
1:15 PM 51.8 °F - 44.6 °F 76% 30.28 in 8.0 mi North 8.1 mph - 0.00 in   Overcast
1:35 PM 51.8 °F - 42.8 °F 71% 30.28 in 10.0 mi NNE 8.1 mph - 0.00 in   Overcast
1:55 PM 53.6 °F - 42.8 °F 67% 30.29 in 10.0 mi North 5.8 mph - 0.00 in   Overcast
2:15 PM 53.6 °F - 42.8 °F 67% 30.28 in 10.0 mi NNE 6.9 mph - 0.00 in   Overcast
2:35 PM 53.6 °F - 41.0 °F 62% 30.29 in 10.0 mi NNE 6.9 mph - 0.00 in   Overcast
2:55 PM 53.6 °F - 39.2 °F 58% 30.30 in 10.0 mi NNE 6.9 mph - 0.00 in   Mostly Cloudy
3:15 PM 53.6 °F - 41.0 °F 62% 30.30 in 10.0 mi Calm Calm - 0.00 in   Mostly Cloudy
3:35 PM 53.6 °F - 41.0 °F 62% 30.30 in 10.0 mi NNE 6.9 mph - 0.00 in   Overcast
3:55 PM 53.6 °F - 41.0 °F 62% 30.31 in 10.0 mi NNE 4.6 mph - 0.00 in   Overcast
4:15 PM 53.6 °F - 39.2 °F 58% 30.31 in 10.0 mi NNE 6.9 mph - 0.00 in   Overcast
4:35 PM 53.6 °F - 39.2 °F 58% 30.31 in 10.0 mi NNE 8.1 mph - 0.00 in   Overcast
4:55 PM 53.6 °F - 39.2 °F 58% 30.32 in 10.0 mi NNE 8.1 mph - 0.00 in   Overcast
5:15 PM 53.6 °F - 39.2 °F 58% 30.32 in 10.0 mi NNE 6.9 mph - 0.00 in   Overcast
5:35 PM 53.6 °F - 39.2 °F 58% 30.32 in 10.0 mi NNE 6.9 mph - 0.00 in   Overcast
6:15 PM 53.6 °F - 39.2 °F 58% 30.34 in 10.0 mi North 5.8 mph - 0.00 in   Overcast
6:35 PM 53.6 °F - 37.4 °F 54% 30.34 in 10.0 mi NNE 9.2 mph - 0.00 in   Overcast
6:55 PM 53.6 °F - 37.4 °F 54% 30.35 in 10.0 mi NNE 5.8 mph - 0.00 in   Mostly Cloudy
7:15 PM 53.6 °F - 37.4 °F 54% 30.35 in 10.0 mi North 6.9 mph - 0.00 in   Mostly Cloudy
7:35 PM 51.8 °F - 35.6 °F 54% 30.36 in 10.0 mi North 6.9 mph - 0.00 in   Mostly Cloudy
7:55 PM 51.8 °F - 35.6 °F 54% 30.36 in 10.0 mi North 8.1 mph - 0.00 in   Scattered Clouds
8:15 PM 51.8 °F - 35.6 °F 54% 30.36 in 10.0 mi North 8.1 mph - 0.00 in   Scattered Clouds
8:35 PM 51.8 °F - 35.6 °F 54% 30.37 in 10.0 mi NNE 6.9 mph - 0.00 in   Mostly Cloudy
8:55 PM 51.8 °F - 35.6 °F 54% 30.36 in 10.0 mi NNE 11.5 mph - 0.00 in   Mostly Cloudy
9:15 PM 51.8 °F - 35.6 °F 54% 30.37 in 10.0 mi NNE 12.7 mph 17.3 mph 0.00 in   Partly Cloudy
9:35 PM 50.0 °F - 35.6 °F 58% 30.37 in 10.0 mi NNE 10.4 mph - 0.00 in   Clear
9:55 PM 50.0 °F - 35.6 °F 58% 30.38 in 10.0 mi NNE 9.2 mph - 0.00 in   Partly Cloudy
10:15 PM 50.0 °F - 35.6 °F 58% 30.39 in 10.0 mi NNE 9.2 mph - 0.00 in   Scattered Clouds
10:35 PM 48.2 °F - 35.6 °F 62% 30.39 in 10.0 mi NNE 9.2 mph - 0.00 in   Partly Cloudy
10:55 PM 48.2 °F - 35.6 °F 62% 30.40 in 10.0 mi NNE 9.2 mph - 0.00 in   Clear
11:15 PM 48.2 °F - 33.8 °F 58% 30.40 in 10.0 mi NNE 10.4 mph - 0.00 in   Clear
11:35 PM 48.2 °F - 33.8 °F 58% 30.40 in 10.0 mi North 9.2 mph - 0.00 in   Clear
11:55 PM 46.4 °F 41.9 °F 33.8 °F 62% 30.40 in 10.0 mi NNE 9.2 mph - 0.00 in   Clear